• In Kazakhstan
  • List of Countries
  • For 7 days
  • Water Temperature
  • Weather Map
  • News
  • Weather Widgets
  • user-avatar
    Login

    Hourly Weather Trujillo

    Today, 2 April, Thursday

    Time Temperature Precipitation Wind Pressure Humidity
    00:00 +20°C° 0.4 mm 1 mps 646 mmHg 88%
    01:00 +20°C° 0 mm 1 mps 646 mmHg 87%
    02:00 +20°C° 0.2 mm 1 mps 646 mmHg 86%
    03:00 +20°C° 0.2 mm 1 mps 646 mmHg 86%
    04:00 +18°C° 0.2 mm 0 mps 646 mmHg 86%
    05:00 +18°C° 0.1 mm 0 mps 646 mmHg 85%
    06:00 +19°C° 0.1 mm 0 mps 647 mmHg 84%
    07:00 +19°C° 0.1 mm 0 mps 648 mmHg 82%
    08:00 +21°C° 0.3 mm 0 mps 648 mmHg 79%
    09:00 +24°C° 0.3 mm 1 mps 649 mmHg 75%
    10:00 +25°C° 0.3 mm 1 mps 650 mmHg 71%
    11:00 +25°C° 1.1 mm 1 mps 649 mmHg 74%
    12:00 +25°C° 1.1 mm 1 mps 648 mmHg 77%
    13:00 +24°C° 1.1 mm 1 mps 647 mmHg 81%
    14:00 +24°C° 1.1 mm 1 mps 646 mmHg 81%
    15:00 +24°C° 1.1 mm 1 mps 646 mmHg 81%
    16:00 +24°C° 1.1 mm 1 mps 645 mmHg 82%
    17:00 +23°C° 1.1 mm 1 mps 645 mmHg 85%
    18:00 +22°C° 1.1 mm 1 mps 646 mmHg 89%
    19:00 +21°C° 1.1 mm 1 mps 646 mmHg 92%
    20:00 +20°C° 0.3 mm 1 mps 646 mmHg 92%
    21:00 +20°C° 0.3 mm 1 mps 647 mmHg 91%
    22:00 +20°C° 0.3 mm 1 mps 647 mmHg 91%
    23:00 +20°C° 0 mm 1 mps 647 mmHg 91%

    Tomorrow, 3 April, Friday

    Time Temperature Precipitation Wind Pressure Humidity
    00:00 +20°C° 0 mm 1 mps 646 mmHg 91%
    01:00 +20°C° 0 mm 1 mps 646 mmHg 91%
    02:00 +19°C° 0 mm 1 mps 646 mmHg 90%
    03:00 +19°C° 0 mm 1 mps 645 mmHg 90%
    04:00 +19°C° 0 mm 1 mps 645 mmHg 90%
    05:00 +18°C° 0 mm 0 mps 646 mmHg 88%
    06:00 +19°C° 0 mm 0 mps 647 mmHg 87%
    07:00 +19°C° 0 mm 0 mps 648 mmHg 85%
    08:00 +21°C° 0.5 mm 0 mps 648 mmHg 82%
    09:00 +24°C° 0.5 mm 1 mps 648 mmHg 79%
    10:00 +25°C° 0.5 mm 1 mps 649 mmHg 76%
    11:00 +25°C° 1.9 mm 1 mps 648 mmHg 79%
    12:00 +25°C° 1.9 mm 1 mps 647 mmHg 81%
    13:00 +24°C° 1.9 mm 1 mps 646 mmHg 84%
    14:00 +24°C° 2.3 mm 1 mps 646 mmHg 84%
    15:00 +24°C° 2.3 mm 1 mps 646 mmHg 85%
    16:00 +22°C° 2.3 mm 0 mps 645 mmHg 85%
    17:00 +21°C° 1.8 mm 0 mps 645 mmHg 87%
    18:00 +20°C° 1.8 mm 0 mps 645 mmHg 89%
    19:00 +21°C° 1.8 mm 1 mps 645 mmHg 91%
    20:00 +21°C° 0 mm 1 mps 646 mmHg 91%
    21:00 +20°C° 0 mm 1 mps 646 mmHg 90%
    22:00 +20°C° 0 mm 1 mps 647 mmHg 90%
    23:00 +20°C° 0 mm 1 mps 646 mmHg 89%

    Day after tomorrow, 4 April, Saturday

    Time Temperature Precipitation Wind Pressure Humidity
    00:00 +20°C° 0 mm 1 mps 646 mmHg 88%
    01:00 +20°C° 0 mm 1 mps 645 mmHg 88%
    02:00 +20°C° 0 mm 1 mps 645 mmHg 88%
    03:00 +20°C° 0 mm 1 mps 645 mmHg 88%
    04:00 +20°C° 0 mm 1 mps 645 mmHg 88%
    05:00 +20°C° 0.2 mm 1 mps 646 mmHg 88%
    06:00 +19°C° 0.2 mm 0 mps 646 mmHg 87%
    07:00 +19°C° 0.2 mm 0 mps 646 mmHg 87%
    08:00 +20°C° 0.5 mm 0 mps 647 mmHg 86%
    09:00 +20°C° 0.5 mm 0 mps 647 mmHg 86%
    10:00 +21°C° 0.5 mm 0 mps 648 mmHg 85%
    11:00 +23°C° 1.2 mm 1 mps 647 mmHg 84%
    12:00 +24°C° 1.2 mm 1 mps 647 mmHg 83%
    13:00 +24°C° 1.2 mm 1 mps 646 mmHg 82%
    14:00 +24°C° 1.3 mm 1 mps 646 mmHg 83%
    15:00 +24°C° 1.3 mm 1 mps 645 mmHg 84%
    16:00 +22°C° 1.3 mm 0 mps 645 mmHg 85%
    17:00 +21°C° 1.1 mm 0 mps 645 mmHg 87%
    18:00 +22°C° 1.1 mm 1 mps 645 mmHg 90%
    19:00 +21°C° 1.1 mm 1 mps 645 mmHg 92%
    20:00 +21°C° 0.1 mm 1 mps 645 mmHg 91%
    21:00 +20°C° 0.1 mm 1 mps 646 mmHg 90%
    22:00 +20°C° 0.1 mm 1 mps 646 mmHg 89%
    23:00 +20°C° 0 mm 1 mps 646 mmHg 89%

    5 April, Sunday

    Time Temperature Precipitation Wind Pressure Humidity
    00:00 +20°C° 0 mm 1 mps 645 mmHg 88%
    01:00 +20°C° 0 mm 1 mps 645 mmHg 88%
    02:00 +20°C° 0 mm 1 mps 645 mmHg 88%
    03:00 +20°C° 0 mm 1 mps 645 mmHg 88%
    04:00 +20°C° 0 mm 1 mps 645 mmHg 87%
    05:00 +20°C° 0 mm 1 mps 646 mmHg 85%
    06:00 +21°C° 0 mm 1 mps 646 mmHg 82%
    07:00 +22°C° 0 mm 1 mps 647 mmHg 80%
    08:00 +24°C° 0 mm 1 mps 648 mmHg 74%
    09:00 +25°C° 0 mm 1 mps 648 mmHg 68%
    10:00 +27°C° 0 mm 1 mps 649 mmHg 62%
    11:00 +28°C° 0.3 mm 1 mps 649 mmHg 62%
    12:00 +28°C° 0.3 mm 1 mps 648 mmHg 62%
    13:00 +28°C° 0.3 mm 1 mps 647 mmHg 62%
    14:00 +28°C° 0.5 mm 1 mps 647 mmHg 67%
    15:00 +27°C° 0.5 mm 1 mps 646 mmHg 72%
    16:00 +26°C° 0.5 mm 1 mps 645 mmHg 77%
    17:00 +24°C° 0.1 mm 1 mps 645 mmHg 82%
    18:00 +23°C° 0.1 mm 1 mps 645 mmHg 86%
    19:00 +22°C° 0.1 mm 1 mps 645 mmHg 91%
    20:00 +21°C° 0 mm 1 mps 646 mmHg 90%
    21:00 +21°C° 0 mm 1 mps 646 mmHg 89%
    22:00 +21°C° 0 mm 1 mps 647 mmHg 88%
    23:00 +21°C° 0 mm 1 mps 646 mmHg 85%

    6 April, Monday

    Time Temperature Precipitation Wind Pressure Humidity
    00:00 +20°C° 0 mm 1 mps 646 mmHg 83%
    01:00 +20°C° 0 mm 1 mps 645 mmHg 80%
    02:00 +20°C° 0 mm 1 mps 646 mmHg 80%
    03:00 +20°C° 0 mm 1 mps 646 mmHg 79%
    04:00 +20°C° 0 mm 1 mps 646 mmHg 79%
    05:00 +21°C° 0 mm 1 mps 646 mmHg 78%
    06:00 +21°C° 0 mm 1 mps 647 mmHg 77%
    07:00 +22°C° 0 mm 1 mps 648 mmHg 77%
    08:00 +24°C° 0 mm 1 mps 649 mmHg 72%
    09:00 +25°C° 0 mm 1 mps 649 mmHg 67%
    10:00 +27°C° 0 mm 1 mps 650 mmHg 63%
    11:00 +28°C° 0.1 mm 1 mps 650 mmHg 60%
    12:00 +29°C° 0.1 mm 1 mps 649 mmHg 57%
    13:00 +29°C° 0.1 mm 1 mps 648 mmHg 55%
    14:00 +28°C° 0.2 mm 1 mps 648 mmHg 60%
    15:00 +27°C° 0.2 mm 1 mps 647 mmHg 65%
    16:00 +26°C° 0.2 mm 1 mps 646 mmHg 71%
    17:00 +25°C° 0.1 mm 1 mps 646 mmHg 77%
    18:00 +23°C° 0.1 mm 1 mps 646 mmHg 83%
    19:00 +22°C° 0.1 mm 1 mps 646 mmHg 90%
    20:00 +22°C° 0 mm 1 mps 647 mmHg 89%
    21:00 +21°C° 0 mm 1 mps 647 mmHg 88%
    22:00 +21°C° 0 mm 1 mps 647 mmHg 87%
    23:00 +21°C° 0 mm 1 mps 647 mmHg 86%

    7 April, Tuesday

    Time Temperature Precipitation Wind Pressure Humidity
    00:00 +21°C° 0 mm 1 mps 647 mmHg 84%
    01:00 +20°C° 0 mm 1 mps 646 mmHg 83%
    02:00 +20°C° 0 mm 1 mps 646 mmHg 82%
    03:00 +20°C° 0 mm 1 mps 646 mmHg 82%
    04:00 +20°C° 0 mm 1 mps 646 mmHg 82%
    05:00 +21°C° 0 mm 1 mps 647 mmHg 81%
    06:00 +22°C° 0 mm 1 mps 647 mmHg 80%
    07:00 +23°C° 0 mm 1 mps 648 mmHg 78%
    08:00 +24°C° 0 mm 1 mps 649 mmHg 74%
    09:00 +26°C° 0 mm 1 mps 650 mmHg 69%
    10:00 +27°C° 0 mm 1 mps 650 mmHg 64%
    11:00 +27°C° 0.4 mm 1 mps 650 mmHg 65%
    12:00 +27°C° 0.4 mm 1 mps 649 mmHg 65%
    13:00 +28°C° 0.4 mm 1 mps 648 mmHg 65%
    14:00 +27°C° 0.4 mm 1 mps 648 mmHg 67%
    15:00 +27°C° 0.4 mm 1 mps 647 mmHg 68%
    16:00 +26°C° 0.4 mm 1 mps 646 mmHg 70%
    17:00 +25°C° 0.1 mm 1 mps 647 mmHg 76%
    18:00 +23°C° 0.1 mm 1 mps 647 mmHg 83%
    19:00 +22°C° 0.1 mm 1 mps 647 mmHg 89%
    20:00 +21°C° 0 mm 1 mps 647 mmHg 89%
    21:00 +21°C° 0 mm 1 mps 647 mmHg 88%
    22:00 +21°C° 0 mm 1 mps 647 mmHg 87%
    23:00 +20°C° 0 mm 1 mps 647 mmHg 86%
    Show more